Victorville, CA

8:56 PM PST on February 06, 2016 (GMT -0800)
Southern California Logistics

Weather History for KVCV - November, 2013

Change the Weather History Date:

Sunday, November 3, 2013

  Actual Average (KDAG) Record (KDAG)
Temperature  
Mean Temperature 58 °F 61 °F  
Max Temperature 71 °F 75 °F 88 °F (1988)
Min Temperature 44 °F 47 °F 35 °F (2011)
Degree Days  
Heating Degree Days 8    
Cooling Degree Days 0    
Growing Degree Days 8 (Base 50)    
Moisture  
Dew Point 32 °F    
Average Humidity 42    
Maximum Humidity 76    
Minimum Humidity 20    
Precipitation  
Precipitation 0.00 in 0.00 in 0.10 in (1957)
Month to date precipitation 0.02  
Year to date precipitation 3.17  
Sea Level Pressure  
Sea Level Pressure 29.86 in    
Wind  
Wind Speed 8 mph (SW)    
Max Wind Speed 13 mph    
Max Gust Speed 18 mph    
Visibility 10 miles    
Events      
T = Trace of Precipitation, MM = Missing Value Source: NWS Daily Summary

Daily Weather History Graph

Daily Weather History Graph

Search for Another Location

Airport or City:

Trip Planner

Search our weather history database for the weather conditions in past years. The results will help you decide how hot, cold, wet, or windy it might be!

Date:

Astronomy

Nov. 03, 2013 Rise Set
Actual Time 6:12 AM PST 4:53 PM PST
Civil Twilight 5:45 AM PST 5:19 PM PST
Nautical Twilight 5:16 AM PST 5:49 PM PST
Astronomical Twilight 4:46 AM PST 6:19 PM PST
Moon 6:20 AM PST (11/3) 5:13 PM PST (11/3)
Length of Visible Light 11h 33m
Length of Day
10h 41m
New Moon, 0% of the Moon is Illuminated
Nov 3
New Moon
Nov 9
First Quarter
Nov 17
Full
Nov 25
Last Quarter
Dec 2
New

Hourly Weather History & Observations

Time (PST) Temp. Windchill Dew Point Humidity Pressure Visibility Wind Dir Wind Speed Gust Speed Precip Events Conditions
12:15 AM 53.6 °F - 33.8 °F 47% 29.90 in 10.0 mi South 9.2 mph - N/A   Unknown
12:35 AM 51.8 °F - 33.8 °F 50% 29.90 in 10.0 mi South 9.2 mph - N/A   Unknown
12:55 AM 51.8 °F - 33.8 °F 50% 29.90 in 10.0 mi Calm Calm - N/A   Unknown
1:15 AM 53.6 °F - 33.8 °F 47% 29.90 in 10.0 mi South 3.5 mph - N/A   Unknown
1:35 AM 51.8 °F - 33.8 °F 50% 29.89 in 10.0 mi South 4.6 mph - N/A   Unknown
1:55 AM 50.0 °F - 33.8 °F 54% 29.89 in 10.0 mi SSE 6.9 mph - N/A   Unknown
1:15 AM 46.4 °F 44.3 °F 32.0 °F 57% 29.89 in 10.0 mi South 4.6 mph - N/A   Unknown
1:35 AM 48.2 °F - 33.8 °F 58% 29.89 in 10.0 mi SSW 10.4 mph - N/A   Unknown
1:55 AM 48.2 °F - 33.8 °F 58% 29.88 in 10.0 mi South 6.9 mph - N/A   Unknown
2:15 AM 48.2 °F - 30.2 °F 50% 29.88 in 10.0 mi South 6.9 mph - N/A   Unknown
2:35 AM 46.4 °F 42.9 °F 30.2 °F 53% 29.88 in 10.0 mi South 6.9 mph - N/A   Unknown
2:55 AM 48.2 °F - 32.0 °F 54% 29.87 in 10.0 mi South 6.9 mph - N/A   Unknown
3:15 AM 46.4 °F 42.4 °F 30.2 °F 53% 29.87 in 10.0 mi South 8.1 mph - N/A   Unknown
3:35 AM 44.6 °F 40.7 °F 30.2 °F 57% 29.87 in 10.0 mi SSW 6.9 mph - N/A   Unknown
3:55 AM 44.6 °F 41.4 °F 30.2 °F 57% 29.87 in 10.0 mi SSW 5.8 mph - N/A   Unknown
4:15 AM 46.4 °F 45.2 °F 30.2 °F 53% 29.87 in 10.0 mi SSW 3.5 mph - N/A   Unknown
4:35 AM 44.6 °F 40.2 °F 30.2 °F 57% 29.86 in 10.0 mi SSW 8.1 mph - N/A   Unknown
4:55 AM 48.2 °F - 32.0 °F 54% 29.86 in 10.0 mi SSW 10.4 mph - N/A   Unknown
5:15 AM 48.2 °F - 32.0 °F 54% 29.87 in 10.0 mi SW 11.5 mph - N/A   Unknown
5:35 AM 46.4 °F 42.4 °F 32.0 °F 57% 29.88 in 10.0 mi SSW 8.1 mph - N/A   Unknown
5:55 AM 46.4 °F 43.5 °F 32.0 °F 57% 29.88 in 10.0 mi SSW 5.8 mph - N/A   Unknown
6:15 AM 48.2 °F - 30.2 °F 50% 29.88 in 10.0 mi SW 8.1 mph - N/A   Unknown
6:35 AM 50.0 °F - 28.4 °F 43% 29.88 in 10.0 mi WSW 9.2 mph - N/A   Unknown
6:55 AM 51.8 °F - 26.6 °F 38% 29.89 in 10.0 mi SW 8.1 mph - N/A   Unknown
7:15 AM 53.6 °F - 26.6 °F 35% 29.89 in 10.0 mi WSW 9.2 mph - N/A   Unknown
7:35 AM 55.4 °F - 26.6 °F 33% 29.90 in 10.0 mi West 8.1 mph - N/A   Unknown
7:55 AM 57.2 °F - 28.4 °F 33% 29.91 in 10.0 mi West 9.2 mph - N/A   Unknown
8:15 AM 57.2 °F - 28.4 °F 33% 29.92 in 10.0 mi West 8.1 mph - N/A   Unknown
8:35 AM 59.0 °F - 30.2 °F 34% 29.91 in 10.0 mi West 10.4 mph - N/A   Unknown
8:55 AM 60.8 °F - 30.2 °F 31% 29.91 in 10.0 mi West 9.2 mph - N/A   Unknown
9:15 AM 62.6 °F - 30.2 °F 30% 29.91 in 10.0 mi West 11.5 mph 17.3 mph N/A   Unknown
9:35 AM 62.6 °F - 30.2 °F 30% 29.91 in 10.0 mi West 10.4 mph - N/A   Unknown
9:55 AM 64.4 °F - 30.2 °F 28% 29.91 in 10.0 mi West 10.4 mph - N/A   Unknown
10:15 AM 64.4 °F - 30.2 °F 28% 29.91 in 10.0 mi West 12.7 mph - N/A   Unknown
10:35 AM 66.2 °F - 32.0 °F 28% 29.90 in 10.0 mi West 11.5 mph 16.1 mph N/A   Unknown
10:55 AM 66.2 °F - 30.2 °F 26% 29.89 in 10.0 mi West 12.7 mph - N/A   Unknown
11:15 AM 68.0 °F - 30.2 °F 24% 29.89 in 10.0 mi West 11.5 mph 16.1 mph N/A   Unknown
11:35 AM 68.0 °F - 30.2 °F 24% 29.88 in 10.0 mi West 10.4 mph 18.4 mph N/A   Unknown
11:55 AM 69.8 °F - 28.4 °F 21% 29.88 in 10.0 mi West 10.4 mph - N/A   Unknown
12:15 PM 69.8 °F - 28.4 °F 21% 29.87 in 10.0 mi West 12.7 mph 16.1 mph N/A   Unknown
12:35 PM 69.8 °F - 28.4 °F 21% 29.85 in 10.0 mi WNW 8.1 mph - N/A   Unknown
12:55 PM 71.6 °F - 28.4 °F 20% 29.84 in 10.0 mi WSW 11.5 mph - N/A   Unknown
1:15 PM 71.6 °F - 28.4 °F 20% 29.84 in 10.0 mi West 11.5 mph - N/A   Unknown
1:35 PM 71.6 °F - 28.4 °F 20% 29.83 in 10.0 mi WNW 8.1 mph - N/A   Unknown
1:55 PM 71.6 °F - 28.4 °F 20% 29.83 in 10.0 mi West 11.5 mph - N/A   Unknown
2:15 PM 71.6 °F - 28.4 °F 20% 29.82 in 10.0 mi WSW 9.2 mph - N/A   Unknown
2:35 PM 71.6 °F - 28.4 °F 20% 29.82 in 10.0 mi West 4.6 mph - N/A   Unknown
2:55 PM 71.6 °F - 28.4 °F 20% 29.82 in 10.0 mi West 8.1 mph - N/A   Unknown
3:15 PM 71.6 °F - 28.4 °F 20% 29.81 in 10.0 mi WSW 11.5 mph - N/A   Unknown
3:35 PM 71.6 °F - 28.4 °F 20% 29.81 in 10.0 mi West 11.5 mph - N/A   Unknown
3:55 PM 69.8 °F - 28.4 °F 21% 29.81 in 10.0 mi West 11.5 mph - N/A   Unknown
4:15 PM 69.8 °F - 30.2 °F 23% 29.81 in 10.0 mi West 9.2 mph - N/A   Unknown
4:35 PM 66.2 °F - 30.2 °F 26% 29.81 in 10.0 mi West 8.1 mph - N/A   Unknown
4:55 PM 64.4 °F - 33.8 °F 32% 29.81 in 10.0 mi WSW 3.5 mph - N/A   Unknown
5:15 PM 60.8 °F - 33.8 °F 36% 29.83 in 10.0 mi SSW 9.2 mph - N/A   Unknown
5:35 PM 59.0 °F - 33.8 °F 39% 29.83 in 10.0 mi SSW 10.4 mph - N/A   Unknown
5:55 PM 59.0 °F - 35.6 °F 42% 29.84 in 10.0 mi WSW 8.1 mph - N/A   Unknown
6:15 PM 59.0 °F - 35.6 °F 42% 29.84 in 10.0 mi SSW 3.5 mph - N/A   Unknown
6:35 PM 57.2 °F - 35.6 °F 44% 29.85 in 10.0 mi SSW 4.6 mph - N/A   Unknown
6:55 PM 55.4 °F - 35.6 °F 47% 29.85 in 10.0 mi SW 6.9 mph - N/A   Unknown
7:15 PM 55.4 °F - 35.6 °F 47% 29.85 in 10.0 mi WSW 6.9 mph - N/A   Unknown
7:35 PM 53.6 °F - 35.6 °F 51% 29.86 in 10.0 mi WSW 8.1 mph - N/A   Unknown
7:55 PM 53.6 °F - 35.6 °F 51% 29.86 in 10.0 mi SW 9.2 mph - N/A   Unknown
8:15 PM 51.8 °F - 37.4 °F 58% 29.86 in 10.0 mi SW 6.9 mph - N/A   Unknown
8:35 PM 51.8 °F - 37.4 °F 58% 29.86 in 10.0 mi SW 6.9 mph - N/A   Unknown
8:55 PM 51.8 °F - 39.2 °F 62% 29.85 in 10.0 mi SSW 4.6 mph - N/A   Unknown
9:15 PM 51.8 °F - 39.2 °F 62% 29.84 in 10.0 mi SW 4.6 mph - N/A   Unknown
9:35 PM 51.8 °F - 42.8 °F 71% 29.83 in 10.0 mi SW 6.9 mph - N/A   Unknown
9:55 PM 53.6 °F - 41.0 °F 62% 29.83 in 10.0 mi SSW 3.5 mph - N/A   Unknown
10:15 PM 50.0 °F - 39.2 °F 66% 29.83 in 10.0 mi Calm Calm - N/A   Unknown
10:35 PM 48.2 °F - 37.4 °F 66% 29.84 in 10.0 mi West 4.6 mph - N/A   Unknown
10:55 PM 46.4 °F - 39.2 °F 76% 29.83 in 10.0 mi Calm Calm - N/A   Unknown